This demonstration page uses our WeatherBlox Daily Observations layout. Learn more.

Left ArrowRight Arrow

47.50024, -111.30081

Hourly Observations for June 27, 2020

Temp ( °F °C ) Dew Point ( °F °C ) Humidity (%) Winds ( mph kmh ) Pressure ( in mb ) Visibility ( mi km ) Precip ( " mm )
12:53 am 00:53 Clear 62 16.7 46 7.8 56 56 S 10 17 29.68 1005 10 16 0.00 0.00
1:53 am 01:53 Clear 60 15.6 46 7.8 60 60 SSW 12 19 29.68 1005 10 16 0.00 0.00
2:53 am 02:53 Clear 62 16.7 45 7.2 54 54 SSW 10 17 29.67 1005 10 16 0.00 0.00
3:53 am 03:53 Clear 64 17.8 43 6.1 46 46 S 12 19 29.66 1004 10 16 0.00 0.00
4:53 am 04:53 Clear 58 14.4 45 7.2 62 62 SSW 9 15 29.66 1004 10 16 0.00 0.00
5:53 am 05:53 Sunny 62 16.7 46 7.8 56 56 S 9 15 29.64 1004 10 16 0.00 0.00
6:53 am 06:53 Sunny 66 18.9 46 7.8 49 49 SSW 10 17 29.64 1004 10 16 0.00 0.00
7:53 am 07:53 Mostly Cloudy with Light Rain 65 18.3 48 8.9 54 54 S 8 13 29.65 1004 10 16 0.00 0.00
8:53 am 08:53 Mostly Cloudy 69 20.6 50 10 51 51 W 8 13 29.66 1005 10 16 0.00 0.00
9:53 am 09:53 Mostly Sunny 74 23.3 49 9.4 41 41 W 20 31 29.64 1004 10 16 0.00 0.00
10:53 am 10:53 Partly Cloudy 78 25.6 48 8.9 35 35 WSW 18 30 29.62 1003 10 16 0.00 0.00
11:53 am 11:53 Mostly Sunny 79 26.1 48 8.9 34 34 WSW 17 28 29.60 1003 10 16 0.00 0.00
12:53 pm 12:53 Mostly Cloudy 78 25.6 48 8.9 35 35 W 16 26 29.60 1003 10 16 0.00 0.00
1:53 pm 13:53 Sunny 78 25.6 47 8.3 33 33 SW 17 28 29.60 1002 10 16 0.00 0.00
2:53 pm 14:53 Partly Cloudy 80 26.7 48 8.9 33 33 SW 17 28 29.56 1001 10 16 0.00 0.00
3:53 pm 15:53 Partly Cloudy 80 26.7 48 8.9 33 33 WSW 20 31 29.54 1000 10 16 0.00 0.00
4:53 pm 16:53 Partly Cloudy 78 25.6 46 7.8 32 32 SW 10 17 29.54 1000 10 16 0.00 0.00
5:53 pm 17:53 Mostly Cloudy with Light Rain 73 22.8 47 8.3 40 40 S 13 20 29.54 1000 10 16 0.00 0.00
6:53 pm 18:53 Mostly Cloudy 67 19.4 51 10.6 57 57 S 12 19 29.52 1000 10 16 0.00 0.00
7:53 pm 19:53 Partly Cloudy 67 19.4 49 9.4 53 53 S 13 20 29.51 999 10 16 0.00 0.00
8:53 pm 20:53 Mostly Cloudy 65 18.3 49 9.4 56 56 SSE 14 22 29.52 1000 10 16 0.00 0.00
9:53 pm 21:53 Cloudy with Light Rain 61 16.1 50 10 67 67 SSW 10 17 29.53 1000 9 14 0.01 0.25
10:48 pm 22:48 Mostly Cloudy with Nearby Thunderstorms 63 17 48 9 59 59 NW 20 31 29.48 998 10 16 0.01 0.25
10:53 pm 22:53 Mostly Cloudy with Nearby Thunderstorms 61 16.1 48 8.9 63 63 NNW 16 26 29.52 1000 10 16 0.01 0.25
11:18 pm 23:18 Clear 59 15 47 8.3 64 64 NNW 5 7 29.50 999 10 16 0.00 0.00
11:53 pm 23:53 Mostly Cloudy 58 14.4 48 8.9 70 70 W 7 11 29.52 1000 10 16 0.00 0.00

Powered by AerisWeather